This demonstration page uses our WeatherBlox Daily Observations layout. Learn more.

Left ArrowRight Arrow

47.50024, -111.30081

Hourly Observations for April 2, 2022

Temp ( °F °C ) Dew Point ( °F °C ) Humidity (%) Winds ( mph kmh ) Pressure ( in mb ) Visibility ( mi km ) Precip ( " mm )
12:53 am 00:53 Clear 29 -1.7 19 -7.2 66 66 S 3 6 30.01 1016 10 16 0.00 0.00
1:53 am 01:53 Clear 30 -1.1 19 -7.2 64 64 SSW 6 9 29.99 1016 10 16 0.00 0.00
2:53 am 02:53 Clear 28 -2.2 19 -7.2 69 69 SSW 6 9 29.98 1015 10 16 0.00 0.00
3:53 am 03:53 Clear 32 0 19 -7.2 59 59 S 6 9 29.95 1014 10 16 0.00 0.00
4:53 am 04:53 Clear 27 -2.8 19 -7.2 72 72 Calm 29.96 1015 10 16 0.00 0.00
5:53 am 05:53 Clear 30 -1.1 21 -6.1 69 69 S 8 13 29.93 1014 10 16 0.00 0.00
6:53 am 06:53 Partly Cloudy 32 0 20 -6.7 61 61 SW 3 6 29.93 1014 10 16 0.00 0.00
7:53 am 07:53 Cloudy 34 1.1 23 -5 64 64 SW 8 13 29.95 1014 10 16 0.00 0.00
8:53 am 08:53 Cloudy 41 5 23 -5 49 49 SSW 9 15 29.92 1013 10 16 0.00 0.00
9:53 am 09:53 Mostly Cloudy 44 6.7 22 -5.6 41 41 SSW 9 15 29.91 1013 10 16 0.00 0.00
10:53 am 10:53 Mostly Sunny 50 10 21 -6.1 32 32 SW 16 26 29.88 1012 10 16 0.00 0.00
11:53 am 11:53 Sunny 54 12.2 22 -5.6 29 29 WSW 17 28 29.85 1011 10 16 0.00 0.00
12:53 pm 12:53 Cloudy 53 11.7 23 -5 31 31 WSW 25 41 29.84 1011 10 16 0.00 0.00
1:53 pm 13:53 Cloudy 48 8.9 26 -3.3 42 42 SW 28 44 29.87 1012 10 16 0.00 0.00
2:53 pm 14:53 Cloudy 49 9.4 27 -2.8 43 43 WSW 23 37 29.89 1012 10 16 0.00 0.00
3:53 pm 15:53 Cloudy 47 8.3 28 -2.2 48 48 NNW 9 15 29.90 1013 10 16 0.00 0.00
4:53 pm 16:53 Mostly Sunny 50 10 21 -6.1 32 32 W 24 39 29.90 1013 10 16 0.00 0.00
5:53 pm 17:53 Partly Cloudy 48 8.9 21 -6.1 34 34 W 26 43 29.91 1013 10 16 0.00 0.00
6:53 pm 18:53 Sunny 47 8.3 18 -7.8 31 31 WSW 24 39 29.93 1014 10 16 0.00 0.00
7:53 pm 19:53 Sunny 41 5 21 -6.1 45 45 SW 16 26 29.98 1015 10 16 0.00 0.00
8:53 pm 20:53 Mostly Cloudy 37 2.8 23 -5 57 57 SW 16 26 30.02 1017 10 16 0.00 0.00
9:53 pm 21:53 Partly Cloudy 38 3.3 21 -6.1 51 51 WSW 16 26 30.04 1017 10 16 0.00 0.00
10:53 pm 22:53 Mostly Cloudy 38 3.3 18 -7.8 44 44 WSW 16 26 30.05 1018 10 16 0.00 0.00
11:53 pm 23:53 Cloudy 37 2.8 18 -7.8 46 46 WSW 14 22 30.06 1018 10 16 0.00 0.00

Powered by AerisWeather